• en France
  • Liste des pays
  • À 7 jours
  • Température de l'eau
  • Carte satellitaire
  • Carte météo
  • Widgets météo
  • user-avatar
    Se connecter

    Météo par heure à Cheremnovo

    Ce jour, 20 Septembre, Jeudi

    Heure Température Précipitation Vent Pression Humidité
    00:00 +13°C° 0 mm 3 m/s 748 mmHg 94%
    01:00 +13°C° 0 mm 3 m/s 748 mmHg 95%
    02:00 +12°C° 0 mm 3 m/s 748 mmHg 97%
    03:00 +12°C° 0 mm 3 m/s 748 mmHg 97%
    04:00 +12°C° 0 mm 3 m/s 748 mmHg 97%
    05:00 +12°C° 0 mm 3 m/s 749 mmHg 98%
    06:00 +12°C° 0 mm 3 m/s 749 mmHg 95%
    07:00 +13°C° 0 mm 3 m/s 749 mmHg 92%
    08:00 +14°C° 0 mm 3 m/s 749 mmHg 90%
    09:00 +16°C° 0 mm 3 m/s 749 mmHg 84%
    10:00 +18°C° 0 mm 3 m/s 749 mmHg 78%
    11:00 +20°C° 0 mm 3 m/s 749 mmHg 72%
    12:00 +21°C° 0 mm 4 m/s 749 mmHg 68%
    13:00 +22°C° 0 mm 4 m/s 749 mmHg 64%
    14:00 +23°C° 0 mm 4 m/s 749 mmHg 59%
    15:00 +23°C° 0 mm 4 m/s 749 mmHg 64%
    16:00 +22°C° 0 mm 3 m/s 749 mmHg 69%
    17:00 +21°C° 0 mm 3 m/s 749 mmHg 73%
    18:00 +20°C° 0 mm 3 m/s 749 mmHg 80%
    19:00 +18°C° 0 mm 2 m/s 749 mmHg 86%
    20:00 +17°C° 0 mm 2 m/s 749 mmHg 92%
    21:00 +17°C° 0 mm 2 m/s 749 mmHg 93%
    22:00 +16°C° 0 mm 2 m/s 749 mmHg 94%
    23:00 +16°C° 0 mm 2 m/s 749 mmHg 95%

    Demain, 21 Septembre, Vendredi

    Heure Température Précipitation Vent Pression Humidité
    00:00 +16°C° 0 mm 3 m/s 749 mmHg 95%
    01:00 +16°C° 0 mm 3 m/s 749 mmHg 96%
    02:00 +16°C° 0 mm 3 m/s 749 mmHg 96%
    03:00 +14°C° 0 mm 3 m/s 749 mmHg 96%
    04:00 +14°C° 0 mm 3 m/s 749 mmHg 95%
    05:00 +14°C° 0 mm 3 m/s 749 mmHg 95%
    06:00 +16°C° 0 mm 3 m/s 749 mmHg 91%
    07:00 +17°C° 0 mm 3 m/s 749 mmHg 87%
    08:00 +17°C° 0 mm 3 m/s 749 mmHg 84%
    09:00 +19°C° 0 mm 3 m/s 749 mmHg 77%
    10:00 +21°C° 0 mm 3 m/s 749 mmHg 71%
    11:00 +23°C° 0 mm 4 m/s 749 mmHg 65%
    12:00 +25°C° 0 mm 4 m/s 748 mmHg 62%
    13:00 +26°C° 0 mm 4 m/s 748 mmHg 59%
    14:00 +27°C° 0 mm 5 m/s 747 mmHg 56%
    15:00 +26°C° 0 mm 4 m/s 747 mmHg 60%
    16:00 +25°C° 0 mm 4 m/s 746 mmHg 65%
    17:00 +24°C° 0 mm 3 m/s 746 mmHg 69%
    18:00 +22°C° 0 mm 4 m/s 745 mmHg 70%
    19:00 +22°C° 0 mm 4 m/s 745 mmHg 72%
    20:00 +21°C° 0 mm 5 m/s 745 mmHg 73%
    21:00 +20°C° 0 mm 5 m/s 744 mmHg 72%
    22:00 +20°C° 0 mm 5 m/s 744 mmHg 71%
    23:00 +19°C° 0 mm 6 m/s 743 mmHg 70%

    Après-demain, 22 Septembre, Samedi

    Heure Température Précipitation Vent Pression Humidité
    00:00 +19°C° 0 mm 6 m/s 742 mmHg 69%
    01:00 +19°C° 0 mm 6 m/s 742 mmHg 69%
    02:00 +19°C° 0 mm 6 m/s 741 mmHg 69%
    03:00 +17°C° 0.1 mm 6 m/s 741 mmHg 71%
    04:00 +16°C° 0.1 mm 6 m/s 741 mmHg 73%
    05:00 +16°C° 0.1 mm 5 m/s 741 mmHg 75%
    06:00 +14°C° 0.7 mm 5 m/s 742 mmHg 79%
    07:00 +13°C° 0.7 mm 4 m/s 742 mmHg 84%
    08:00 +11°C° 0.7 mm 4 m/s 742 mmHg 89%
    09:00 +12°C° 0.1 mm 5 m/s 742 mmHg 83%
    10:00 +13°C° 0.1 mm 5 m/s 743 mmHg 77%
    11:00 +14°C° 0.1 mm 6 m/s 743 mmHg 71%
    12:00 +14°C° 0.1 mm 6 m/s 743 mmHg 68%
    13:00 +15°C° 0.1 mm 6 m/s 743 mmHg 64%
    14:00 +15°C° 0.1 mm 6 m/s 743 mmHg 61%
    15:00 +14°C° 0.3 mm 6 m/s 743 mmHg 66%
    16:00 +13°C° 0.3 mm 5 m/s 743 mmHg 71%
    17:00 +12°C° 0.3 mm 5 m/s 743 mmHg 75%
    18:00 +11°C° 0 mm 4 m/s 743 mmHg 79%
    19:00 +10°C° 0 mm 4 m/s 743 mmHg 82%
    20:00 +9°C° 0 mm 3 m/s 743 mmHg 85%
    21:00 +9°C° 0 mm 3 m/s 743 mmHg 85%
    22:00 +7°C° 0 mm 4 m/s 743 mmHg 85%
    23:00 +7°C° 0 mm 4 m/s 743 mmHg 85%

    23 Septembre, Dimanche

    Heure Température Précipitation Vent Pression Humidité
    00:00 +7°C° 0 mm 4 m/s 743 mmHg 86%
    01:00 +7°C° 0 mm 4 m/s 743 mmHg 87%
    02:00 +7°C° 0 mm 4 m/s 743 mmHg 87%
    03:00 +7°C° 0 mm 4 m/s 743 mmHg 88%
    04:00 +7°C° 0 mm 4 m/s 742 mmHg 89%
    05:00 +7°C° 0 mm 5 m/s 742 mmHg 90%
    06:00 +7°C° 0 mm 5 m/s 742 mmHg 87%
    07:00 +8°C° 0 mm 5 m/s 742 mmHg 83%
    08:00 +9°C° 0 mm 5 m/s 741 mmHg 80%
    09:00 +10°C° 0.1 mm 5 m/s 741 mmHg 76%
    10:00 +10°C° 0.1 mm 6 m/s 741 mmHg 72%
    11:00 +11°C° 0.1 mm 6 m/s 741 mmHg 68%
    12:00 +11°C° 0.4 mm 6 m/s 741 mmHg 69%
    13:00 +11°C° 0.4 mm 6 m/s 741 mmHg 70%
    14:00 +13°C° 0.4 mm 6 m/s 741 mmHg 71%
    15:00 +12°C° 0.2 mm 5 m/s 741 mmHg 74%
    16:00 +12°C° 0.2 mm 5 m/s 741 mmHg 77%
    17:00 +11°C° 0.2 mm 4 m/s 741 mmHg 79%
    18:00 +10°C° 0 mm 4 m/s 741 mmHg 83%
    19:00 +8°C° 0 mm 4 m/s 742 mmHg 87%
    20:00 +7°C° 0 mm 4 m/s 742 mmHg 91%
    21:00 +8°C° 0 mm 3 m/s 742 mmHg 93%
    22:00 +7°C° 0 mm 3 m/s 742 mmHg 94%
    23:00 +7°C° 0 mm 3 m/s 742 mmHg 96%

    24 Septembre, Lundi

    Heure Température Précipitation Vent Pression Humidité
    00:00 +7°C° 0 mm 2 m/s 742 mmHg 97%
    01:00 +6°C° 0 mm 2 m/s 742 mmHg 97%
    02:00 +6°C° 0 mm 2 m/s 742 mmHg 97%
    03:00 +6°C° 0 mm 2 m/s 742 mmHg 97%
    04:00 +7°C° 0 mm 1 m/s 742 mmHg 97%
    05:00 +6°C° 0 mm 1 m/s 741 mmHg 97%
    06:00 +7°C° 0 mm 1 m/s 741 mmHg 96%
    07:00 +8°C° 0 mm 1 m/s 741 mmHg 94%
    08:00 +7°C° 0 mm 2 m/s 741 mmHg 92%
    09:00 +8°C° 0 mm 2 m/s 740 mmHg 86%
    10:00 +10°C° 0 mm 3 m/s 740 mmHg 80%
    11:00 +11°C° 0 mm 3 m/s 739 mmHg 75%
    12:00 +10°C° 0.5 mm 4 m/s 738 mmHg 78%
    13:00 +10°C° 0.5 mm 4 m/s 737 mmHg 82%
    14:00 +8°C° 0.5 mm 4 m/s 737 mmHg 86%
    15:00 +8°C° 1.7 mm 5 m/s 736 mmHg 88%
    16:00 +7°C° 1.7 mm 5 m/s 735 mmHg 90%
    17:00 +7°C° 1.7 mm 6 m/s 734 mmHg 92%
    18:00 +5°C° 1.3 mm 6 m/s 734 mmHg 92%
    19:00 +5°C° 1.3 mm 6 m/s 733 mmHg 92%
    20:00 +5°C° 1.3 mm 6 m/s 732 mmHg 93%
    21:00 +5°C° 1.8 mm 6 m/s 731 mmHg 93%
    22:00 +5°C° 1.8 mm 6 m/s 731 mmHg 94%
    23:00 +5°C° 1.8 mm 6 m/s 730 mmHg 94%

    25 Septembre, Mardi

    Heure Température Précipitation Vent Pression Humidité
    00:00 +5°C° 1.7 mm 7 m/s 730 mmHg 94%
    01:00 +5°C° 1.7 mm 7 m/s 729 mmHg 93%
    02:00 +5°C° 1.7 mm 8 m/s 729 mmHg 92%
    03:00 +5°C° 1.2 mm 8 m/s 729 mmHg 92%
    04:00 +5°C° 1.2 mm 8 m/s 730 mmHg 91%
    05:00 +5°C° 1.2 mm 8 m/s 730 mmHg 91%
    06:00 +5°C° 0.9 mm 8 m/s 730 mmHg 90%
    07:00 +5°C° 0.9 mm 8 m/s 731 mmHg 90%
    08:00 +5°C° 0.9 mm 9 m/s 731 mmHg 90%
    09:00 +5°C° 0.8 mm 9 m/s 732 mmHg 89%
    10:00 +5°C° 0.8 mm 9 m/s 733 mmHg 88%
    11:00 +5°C° 0.8 mm 9 m/s 734 mmHg 88%
    12:00 +5°C° 0.5 mm 9 m/s 735 mmHg 87%
    13:00 +5°C° 0.5 mm 9 m/s 735 mmHg 86%
    14:00 +3°C° 0.5 mm 9 m/s 736 mmHg 85%
    15:00 +3°C° 0.2 mm 9 m/s 737 mmHg 82%
    16:00 +3°C° 0.2 mm 9 m/s 738 mmHg 80%
    17:00 +4°C° 0.2 mm 8 m/s 739 mmHg 77%
    18:00 +4°C° 0 mm 8 m/s 740 mmHg 75%
    19:00 +2°C° 0 mm 8 m/s 740 mmHg 74%
    20:00 +3°C° 0 mm 7 m/s 741 mmHg 72%
    21:00 +3°C° 0 mm 7 m/s 741 mmHg 71%
    22:00 +3°C° 0 mm 7 m/s 742 mmHg 70%
    23:00 +3°C° 0 mm 7 m/s 743 mmHg 69%
    Voir plus